When you browse on this site, cookies collect data to enhance your experience and personalize the content and advertising you see.
Visit our Privacy Policy to learn more. By continuing to use the site, you agree to this use of cookies and data.
  • In Germany
  • List of Countries
  • For 7 days
  • Water Temperature
  • Satellite Maps
  • Weather Map
  • Weather Widgets
  • user-avatar
    Login

    Hourly Weather Burbuki

    Today, 20 November, Tuesday

    Time Temperature Precipitation Wind Pressure Humidity
    00:00 -4°C° 0 mm 4 mps 756 mmHg 79%
    01:00 -4°C° 0.2 mm 4 mps 756 mmHg 81%
    02:00 -3°C° 0.2 mm 4 mps 755 mmHg 83%
    03:00 -3°C° 0 mm 4 mps 755 mmHg 86%
    04:00 -3°C° 0.4 mm 4 mps 755 mmHg 87%
    05:00 -4°C° 0.4 mm 5 mps 755 mmHg 88%
    06:00 -4°C° 0.4 mm 5 mps 754 mmHg 90%
    07:00 -4°C° 0.4 mm 6 mps 754 mmHg 90%
    08:00 -4°C° 0.4 mm 6 mps 754 mmHg 90%
    09:00 -4°C° 0 mm 7 mps 754 mmHg 90%
    10:00 -3°C° 0.3 mm 6 mps 754 mmHg 91%
    11:00 -3°C° 0.3 mm 6 mps 754 mmHg 92%
    12:00 -3°C° 0.3 mm 6 mps 753 mmHg 93%
    13:00 -3°C° 0.3 mm 6 mps 753 mmHg 93%
    14:00 -3°C° 0.3 mm 6 mps 753 mmHg 93%
    15:00 -3°C° 0.3 mm 6 mps 753 mmHg 93%
    16:00 -3°C° 0.3 mm 6 mps 753 mmHg 93%
    17:00 -3°C° 0.3 mm 6 mps 753 mmHg 93%
    18:00 -3°C° 0.3 mm 6 mps 753 mmHg 92%
    19:00 -2°C° 0 mm 5 mps 753 mmHg 92%
    20:00 -4°C° 0 mm 5 mps 754 mmHg 91%
    21:00 -4°C° 0 mm 5 mps 754 mmHg 91%
    22:00 -4°C° 0 mm 4 mps 754 mmHg 91%
    23:00 -4°C° 0 mm 4 mps 755 mmHg 91%

    Tomorrow, 21 November, Wednesday

    Time Temperature Precipitation Wind Pressure Humidity
    00:00 -5°C° 0 mm 4 mps 755 mmHg 90%
    01:00 -6°C° 0 mm 3 mps 755 mmHg 89%
    02:00 -6°C° 0 mm 3 mps 756 mmHg 88%
    03:00 -7°C° 0 mm 3 mps 756 mmHg 87%
    04:00 -7°C° 0 mm 3 mps 756 mmHg 86%
    05:00 -7°C° 0 mm 3 mps 756 mmHg 86%
    06:00 -7°C° 0 mm 3 mps 756 mmHg 85%
    07:00 -7°C° 0 mm 3 mps 756 mmHg 86%
    08:00 -7°C° 0 mm 3 mps 756 mmHg 88%
    09:00 -6°C° 0 mm 3 mps 756 mmHg 89%
    10:00 -5°C° 0 mm 3 mps 756 mmHg 89%
    11:00 -3°C° 0 mm 2 mps 756 mmHg 88%
    12:00 -2°C° 0 mm 2 mps 756 mmHg 88%
    13:00 -2°C° 0 mm 2 mps 756 mmHg 89%
    14:00 -2°C° 0 mm 2 mps 756 mmHg 90%
    15:00 -1°C° 0 mm 2 mps 755 mmHg 91%
    16:00 -2°C° 0 mm 2 mps 755 mmHg 91%
    17:00 -3°C° 0 mm 2 mps 755 mmHg 91%
    18:00 -4°C° 0 mm 2 mps 755 mmHg 91%
    19:00 -5°C° 0 mm 2 mps 755 mmHg 90%
    20:00 -5°C° 0 mm 2 mps 755 mmHg 90%
    21:00 -5°C° 0 mm 2 mps 755 mmHg 89%
    22:00 -5°C° 0 mm 2 mps 755 mmHg 89%
    23:00 -5°C° 0 mm 2 mps 755 mmHg 89%

    Day after tomorrow, 22 November, Thursday

    Time Temperature Precipitation Wind Pressure Humidity
    00:00 -6°C° 0 mm 2 mps 755 mmHg 88%
    01:00 -6°C° 0 mm 2 mps 754 mmHg 88%
    02:00 -6°C° 0 mm 2 mps 754 mmHg 88%
    03:00 -6°C° 0 mm 2 mps 754 mmHg 88%
    04:00 -6°C° 0 mm 2 mps 754 mmHg 89%
    05:00 -6°C° 0 mm 2 mps 754 mmHg 89%
    06:00 -6°C° 0 mm 2 mps 754 mmHg 89%
    07:00 -6°C° 0 mm 2 mps 754 mmHg 89%
    08:00 -6°C° 0 mm 2 mps 754 mmHg 90%
    09:00 -6°C° 0 mm 2 mps 755 mmHg 90%
    10:00 -5°C° 0 mm 2 mps 755 mmHg 88%
    11:00 -5°C° 0 mm 3 mps 755 mmHg 87%
    12:00 -4°C° 0 mm 3 mps 755 mmHg 85%
    13:00 -3°C° 0 mm 2 mps 754 mmHg 85%
    14:00 -3°C° 0 mm 2 mps 754 mmHg 85%
    15:00 -3°C° 0 mm 2 mps 754 mmHg 85%
    16:00 -4°C° 0 mm 2 mps 754 mmHg 86%
    17:00 -5°C° 0 mm 2 mps 754 mmHg 87%
    18:00 -6°C° 0 mm 2 mps 754 mmHg 88%
    19:00 -6°C° 0 mm 2 mps 754 mmHg 87%
    20:00 -6°C° 0 mm 2 mps 754 mmHg 87%
    21:00 -6°C° 0 mm 2 mps 754 mmHg 86%
    22:00 -6°C° 0 mm 2 mps 754 mmHg 86%
    23:00 -6°C° 0 mm 2 mps 754 mmHg 86%

    23 November, Friday

    Time Temperature Precipitation Wind Pressure Humidity
    00:00 -7°C° 0 mm 3 mps 754 mmHg 86%
    01:00 -7°C° 0 mm 3 mps 754 mmHg 86%
    02:00 -7°C° 0 mm 3 mps 754 mmHg 86%
    03:00 -7°C° 0 mm 3 mps 753 mmHg 86%
    04:00 -8°C° 0 mm 4 mps 753 mmHg 86%
    05:00 -8°C° 0 mm 4 mps 753 mmHg 87%
    06:00 -8°C° 0 mm 4 mps 753 mmHg 87%
    07:00 -8°C° 0 mm 4 mps 754 mmHg 88%
    08:00 -8°C° 0 mm 4 mps 754 mmHg 88%
    09:00 -8°C° 0 mm 4 mps 755 mmHg 89%
    10:00 -7°C° 0 mm 4 mps 755 mmHg 88%
    11:00 -5°C° 0 mm 4 mps 756 mmHg 86%
    12:00 -3°C° 0 mm 4 mps 756 mmHg 84%
    13:00 -3°C° 0 mm 4 mps 756 mmHg 84%
    14:00 -2°C° 0 mm 3 mps 757 mmHg 84%
    15:00 -2°C° 0 mm 3 mps 757 mmHg 83%
    16:00 -4°C° 0 mm 3 mps 758 mmHg 84%
    17:00 -5°C° 0 mm 3 mps 759 mmHg 84%
    18:00 -5°C° 0 mm 2 mps 759 mmHg 85%
    19:00 -5°C° 0 mm 2 mps 760 mmHg 84%
    20:00 -5°C° 0 mm 2 mps 761 mmHg 83%
    21:00 -6°C° 0 mm 2 mps 761 mmHg 82%
    22:00 -4°C° 0 mm 1 mps 762 mmHg 81%
    23:00 -6°C° 0 mm 1 mps 762 mmHg 80%

    24 November, Saturday

    Time Temperature Precipitation Wind Pressure Humidity
    00:00 -6°C° 0 mm 1 mps 763 mmHg 79%
    01:00 -6°C° 0 mm 1 mps 763 mmHg 77%
    02:00 -7°C° 0 mm 1 mps 763 mmHg 75%
    03:00 -7°C° 0 mm 1 mps 763 mmHg 74%
    04:00 -7°C° 0 mm 1 mps 763 mmHg 73%
    05:00 -7°C° 0 mm 1 mps 763 mmHg 73%
    06:00 -7°C° 0 mm 1 mps 763 mmHg 72%
    07:00 -7°C° 0 mm 1 mps 763 mmHg 72%
    08:00 -7°C° 0 mm 1 mps 763 mmHg 73%
    09:00 -6°C° 0 mm 1 mps 764 mmHg 73%
    10:00 -4°C° 0 mm 1 mps 763 mmHg 72%
    11:00 -5°C° 0 mm 2 mps 763 mmHg 71%
    12:00 -4°C° 0 mm 2 mps 763 mmHg 71%
    13:00 -4°C° 0 mm 2 mps 762 mmHg 73%
    14:00 -4°C° 0 mm 2 mps 762 mmHg 75%
    15:00 -4°C° 0 mm 2 mps 762 mmHg 77%
    16:00 -5°C° 0 mm 2 mps 761 mmHg 78%
    17:00 -6°C° 0 mm 2 mps 761 mmHg 79%
    18:00 -7°C° 0 mm 2 mps 761 mmHg 80%
    19:00 -8°C° 0 mm 2 mps 761 mmHg 80%
    20:00 -8°C° 0 mm 2 mps 760 mmHg 80%
    21:00 -8°C° 0 mm 2 mps 760 mmHg 80%
    22:00 -8°C° 0 mm 2 mps 760 mmHg 80%
    23:00 -8°C° 0 mm 2 mps 759 mmHg 80%

    25 November, Sunday

    Time Temperature Precipitation Wind Pressure Humidity
    00:00 -8°C° 0 mm 2 mps 759 mmHg 80%
    01:00 -7°C° 0 mm 1 mps 759 mmHg 81%
    02:00 -7°C° 0 mm 1 mps 758 mmHg 81%
    03:00 -7°C° 0 mm 1 mps 758 mmHg 82%
    04:00 -7°C° 0 mm 1 mps 758 mmHg 82%
    05:00 -7°C° 0 mm 1 mps 757 mmHg 82%
    06:00 -7°C° 0 mm 1 mps 757 mmHg 83%
    07:00 -7°C° 0 mm 1 mps 757 mmHg 82%
    08:00 -7°C° 0 mm 1 mps 756 mmHg 82%
    09:00 -6°C° 0 mm 1 mps 756 mmHg 82%
    10:00 -4°C° 0 mm 1 mps 756 mmHg 80%
    11:00 -2°C° 0 mm 1 mps 756 mmHg 77%
    12:00 -1°C° 0 mm 1 mps 755 mmHg 75%
    13:00 -1°C° 0 mm 1 mps 755 mmHg 77%
    14:00 -1°C° 0 mm 1 mps 755 mmHg 79%
    15:00 0°C° 0 mm 1 mps 754 mmHg 81%
    16:00 -1°C° 0 mm 1 mps 754 mmHg 81%
    17:00 -2°C° 0 mm 1 mps 754 mmHg 82%
    18:00 -3°C° 0 mm 1 mps 754 mmHg 83%
    19:00 -3°C° 0 mm 1 mps 753 mmHg 83%
    20:00 -3°C° 0 mm 1 mps 753 mmHg 84%
    21:00 -3°C° 0 mm 1 mps 753 mmHg 84%
    22:00 -3°C° 0 mm 1 mps 753 mmHg 85%
    23:00 -3°C° 0 mm 1 mps 753 mmHg 85%
    Show more